DW5861 Weather Reports


Display with metric or nautical units.
time (UTC)temp
F
wind
direction
speed
MPH
gust
MPH
rain 1hr
in
rain 24hr
in
rain mn
in
humidity
%
barometer
mb
20260906111024 74 349 0.0 2.0 0.00 0.69 0.00 96 1012.7
20260906110504 74 350 0.0 2.0 0.00 0.69 0.00 96 1012.7
20260906110004 74 11 0.0 2.0 0.00 0.69 0.00 96 1012.7
20260906105504 74 18 0.0 1.0 0.00 0.69 0.00 96 1012.7
20260906105004 74 354 0.0 1.0 0.00 0.69 0.00 96 1012.7
20260906104504 74 356 0.0 1.0 0.00 0.69 0.00 96 1012.6
20260906104004 74 54 0.0 1.0 0.00 0.69 0.00 96 1012.5
20260906103525 74 57 0.0 1.0 0.00 0.69 0.00 96 1012.4
20260906103004 74 49 0.0 1.0 0.00 0.69 0.00 95 1012.5
20260906102504 74 35 0.0 1.0 0.00 0.69 0.00 96 1012.4
20260906102004 74 24 0.0 1.0 0.00 0.69 0.00 95 1012.4
20260906101504 74 352 0.0 2.0 0.00 0.69 0.00 95 1012.4
20260906101025 74 351 0.0 2.0 0.00 0.69 0.00 95 1012.4
20260906100525 74 353 0.0 2.0 0.00 0.69 0.00 95 1012.3
20260906100025 74 11 1.0 2.0 0.00 0.69 0.00 95 1012.3
20260906095525 74 36 1.0 2.0 0.00 0.69 0.00 95 1012.3
20260906095004 74 64 0.0 2.0 0.00 0.69 0.00 95 1012.3
20260906094504 74 67 0.0 1.0 0.00 0.69 0.00 95 1012.3
20260906094004 74 178 0.0 1.0 0.00 0.69 0.00 95 1012.2
20260906093504 74 194 1.0 3.0 0.00 0.69 0.00 95 1012.1
20260906093004 74 197 1.0 3.0 0.00 0.69 0.00 95 1012.1
20260906092504 75 200 1.0 2.0 0.00 0.69 0.00 95 1012.0
20260906092004 75 200 1.0 2.0 0.00 0.69 0.00 95 1012.0
20260906091525 75 199 1.0 2.0 0.00 0.69 0.00 95 1012.0
20260906091004 75 197 0.0 2.0 0.00 0.69 0.00 95 1012.0
20260906090504 75 29 0.0 1.0 0.00 0.69 0.00 95 1012.1
20260906090004 75 124 0.0 2.0 0.00 0.69 0.00 95 1012.2
20260906085504 75 127 1.0 2.0 0.00 0.69 0.00 95 1012.1
20260906085025 75 131 1.0 2.0 0.00 0.69 0.00 95 1012.1
20260906084504 75 148 1.0 2.0 0.00 0.69 0.00 95 1012.0
20260906084004 75 150 1.0 2.0 0.00 0.69 0.00 95 1012.0
20260906083504 75 161 1.0 2.0 0.00 0.69 0.00 95 1012.1
20260906083025 75 192 1.0 2.0 0.00 0.69 0.00 95 1012.1
20260906082504 75 228 1.0 2.0 0.00 0.69 0.00 95 1012.0
20260906082004 75 239 1.0 2.0 0.00 0.69 0.00 95 1012.0
20260906081504 75 212 1.0 3.0 0.00 0.69 0.00 95 1012.1
20260906081004 75 205 1.0 3.0 0.00 0.69 0.00 95 1012.1
20260906080525 75 218 1.0 3.0 0.00 0.69 0.00 95 1012.0
20260906080025 75 256 1.0 2.0 0.00 0.69 0.00 95 1012.1
20260906075505 75 270 1.0 1.0 0.00 0.69 0.00 95 1012.3
20260906075004 75 212 1.0 2.0 0.00 0.69 0.00 95 1012.3
20260906074504 75 180 1.0 2.0 0.00 0.69 0.00 95 1012.4
20260906074004 75 185 1.0 2.0 0.00 0.69 0.00 95 1012.4
20260906073504 75 217 1.0 2.0 0.00 0.69 0.00 95 1012.4
20260906073004 75 235 1.0 2.0 0.00 0.69 0.00 95 1012.6
20260906072525 75 269 0.0 2.0 0.00 0.69 0.00 95 1012.6
20260906072004 75 13 0.0 1.0 0.00 0.69 0.00 95 1012.6
20260906071504 75 46 0.0 1.0 0.00 0.69 0.00 95 1012.6
20260906071004 75 110 0.0 1.0 0.00 0.69 0.00 95 1012.5
20260906070504 75 48 0.0 1.0 0.00 0.69 0.00 95 1012.5
20260906070025 75 26 0.0 1.0 0.00 0.69 0.00 95 1012.5
20260906065525 75 26 0.0 1.0 0.00 0.69 0.00 95 1012.5
20260906065004 75 305 1.0 2.0 0.00 0.69 0.00 95 1012.6
20260906064504 75 268 1.0 2.0 0.00 0.69 0.00 95 1012.6
20260906064004 75 249 0.0 2.0 0.00 0.69 0.00 95 1012.7
20260906063504 75 91 0.0 2.0 0.00 0.69 0.00 95 1012.7
20260906063004 75 133 1.0 2.0 0.00 0.69 0.00 95 1012.7
20260906062504 75 162 1.0 2.0 0.00 0.69 0.00 95 1012.7
20260906062004 75 99 1.0 2.0 0.00 0.69 0.00 95 1012.5
20260906061525 75 51 1.0 2.0 0.00 0.69 0.00 95 1012.6
20260906061025 75 93 1.0 2.0 0.00 0.69 0.00 95 1012.5
20260906060504 75 125 1.0 2.0 0.00 0.69 0.00 95 1012.4
20260906060004 75 157 1.0 2.0 0.00 0.69 0.00 95 1012.4
20260906055504 75 160 0.0 2.0 0.00 0.69 0.00 94 1012.3
20260906055004 75 83 0.0 1.0 0.00 0.69 0.00 94 1012.3
20260906054504 75 100 0.0 2.0 0.00 0.69 0.00 95 1012.2
20260906054025 75 137 1.0 2.0 0.00 0.69 0.00 95 1012.1
20260906053504 75 159 1.0 2.0 0.00 0.69 0.00 95 1012.0
20260906053004 76 133 1.0 2.0 0.00 0.69 0.00 95 1012.1
20260906052504 75 150 0.0 2.0 0.01 0.69 0.00 95 1012.0
20260906052004 76 172 0.0 2.0 0.01 0.69 0.00 95 1012.0
20260906051525 76 172 1.0 2.0 0.01 0.69 0.00 95 1012.0
20260906051025 76 171 1.0 2.0 0.01 0.69 0.00 94 1011.9
20260906050504 76 170 0.0 2.0 0.01 0.69 0.00 94 1011.8
20260906050004 76 106 0.0 2.0 0.01 0.69 0.00 94 1011.8
20260906045504 76 77 1.0 3.0 0.01 0.69 0.69 94 1011.8
20260906045004 76 41 1.0 3.0 0.01 0.69 0.69 94 1011.9
20260906044504 76 344 0.0 2.0 0.01 0.69 0.69 94 1011.8
20260906044004 76 335 1.0 2.0 0.01 0.69 0.69 94 1011.8
20260906043504 76 315 1.0 2.0 0.01 0.69 0.69 94 1011.7
20260906043004 76 320 1.0 2.0 0.01 0.69 0.69 94 1011.7
20260906042525 76 333 1.0 2.0 0.00 0.68 0.68 94 1011.7
20260906042004 76 257 1.0 3.0 0.00 0.68 0.68 94 1011.6
20260906041504 76 237 1.0 3.0 0.00 0.68 0.68 94 1011.6
20260906041004 76 203 1.0 3.0 0.00 0.68 0.68 94 1011.7
20260906040504 76 196 2.0 3.0 0.00 0.68 0.68 94 1011.6
20260906040004 76 198 2.0 3.0 0.00 0.68 0.68 94 1011.8
20260906035504 76 204 2.0 3.0 0.00 0.68 0.68 94 1011.8
20260906035004 76 213 1.0 3.0 0.00 0.68 0.68 94 1011.6
20260906034504 76 215 1.0 2.0 0.00 0.68 0.68 94 1011.8
20260906034025 76 205 1.0 3.0 0.00 0.68 0.68 94 1011.9
20260906033525 76 192 1.0 3.0 0.00 0.68 0.68 94 1011.8
20260906033025 77 181 1.0 2.0 0.00 0.68 0.68 94 1011.7
20260906032506 76 164 1.0 2.0 0.00 0.68 0.68 94 1011.6
20260906032004 76 115 1.0 2.0 0.00 0.68 0.68 94 1011.5
20260906031525 77 44 0.0 2.0 0.00 0.68 0.68 94 1011.4
20260906031004 76 42 0.0 2.0 0.00 0.68 0.68 94 1011.3
20260906030504 77 190 1.0 3.0 0.00 0.68 0.68 93 1011.2
20260906030004 77 175 2.0 3.0 0.00 0.68 0.68 94 1011.1
20260906025525 77 173 1.0 3.0 0.00 0.68 0.68 93 1011.1
20260906025004 76 289 0.0 2.0 0.00 0.68 0.68 93 1011.1
20260906024525 76 290 0.0 2.0 0.00 0.68 0.68 93 1011.2
20260906024004 76 73 0.0 1.0 0.00 0.68 0.68 93 1011.3
20260906023504 76 248 0.0 1.0 0.00 0.68 0.68 93 1011.3
20260906023004 77 235 0.0 1.0 0.00 0.68 0.68 93 1011.2
20260906022504 77 283 0.0 1.0 0.00 0.68 0.68 93 1011.3
20260906022005 77 350 0.0 1.0 0.00 0.68 0.68 93 1011.2
20260906021504 77 237 0.0 1.0 0.00 0.68 0.68 93 1011.2
20260906021004 77 232 0.0 1.0 0.00 0.68 0.68 93 1011.1
20260906020504 77 353 0.0 1.0 0.00 0.68 0.68 93 1011.2
20260906020025 77 28 0.0 1.0 0.00 0.68 0.68 93 1011.2
20260906015504 77 39 0.0 1.0 0.00 0.68 0.68 93 1011.2
20260906015004 77 132 1.0 2.0 0.00 0.68 0.68 93 1011.2
20260906014504 77 131 1.0 2.0 0.01 0.68 0.68 93 1011.1
20260906014004 77 83 0.0 1.0 0.01 0.68 0.68 93 1011.1
20260906013504 77 327 0.0 1.0 0.01 0.68 0.68 93 1011.1
20260906013004 77 351 1.0 2.0 0.01 0.68 0.68 93 1011.1
20260906012504 77 4 1.0 2.0 0.02 0.68 0.68 92 1011.2
20260906012004 77 26 0.0 1.0 0.02 0.68 0.68 92 1011.2
20260906011504 77 247 0.0 1.0 0.02 0.68 0.68 92 1011.2
20260906011025 77 224 0.0 1.0 0.03 0.68 0.68 92 1011.3
20260906010504 77 6 0.0 1.0 0.04 0.68 0.68 92 1011.4
20260906010025 77 309 0.0 2.0 0.04 0.68 0.68 92 1011.5
20260906005525 78 302 1.0 2.0 0.05 0.68 0.68 92 1011.5
20260906005004 78 334 1.0 1.0 0.05 0.68 0.68 92 1011.6
20260906004504 78 360 0.0 1.0 0.05 0.67 0.67 92 1011.8
20260906004004 78 6 0.0 1.0 0.05 0.67 0.67 92 1011.8
20260906003504 78 274 0.0 1.0 0.05 0.67 0.67 92 1011.9
20260906003004 78 323 0.0 2.0 0.05 0.67 0.67 92 1011.9
20260906002504 78 2 0.0 2.0 0.05 0.66 0.66 92 1012.1
20260906002004 78 24 1.0 2.0 0.05 0.66 0.66 92 1012.2
20260906001525 78 129 1.0 2.0 0.05 0.66 0.66 92 1012.3
20260906001004 78 110 1.0 2.0 0.05 0.65 0.65 92 1012.2
20260906000504 78 61 0.0 2.0 0.05 0.64 0.64 92 1012.2
20260906000003 78 62 0.0 2.0 0.06 0.64 0.64 91 1012.1
20260905235524 78 65 1.0 2.0 0.06 0.63 0.64 91 1012.0
20260905235004 79 142 1.0 3.0 0.07 0.63 0.63 91 1011.9
20260905234504 79 172 1.0 3.0 0.06 0.62 0.62 91 1011.9
20260905234004 79 174 1.0 2.0 0.07 0.62 0.62 91 1011.9
20260905233504 79 165 1.0 3.0 0.07 0.62 0.62 91 1011.9
20260905233004 79 166 1.0 3.0 0.07 0.62 0.62 91 1011.8
20260905232503 79 133 1.0 2.0 0.06 0.61 0.61 91 1011.8
20260905232004 79 61 1.0 2.0 0.06 0.61 0.61 91 1012.0
20260905231504 79 107 1.0 3.0 0.06 0.61 0.61 91 1012.0
20260905231004 79 135 1.0 3.0 0.06 0.60 0.60 91 1011.9
20260905230504 79 151 1.0 4.0 0.06 0.59 0.59 91 1012.0
20260905230025 79 130 2.0 4.0 0.06 0.58 0.58 90 1012.1
20260905225525 80 61 1.0 3.0 0.05 0.57 0.57 90 1012.2
20260905225004 80 88 1.0 3.0 0.04 0.56 0.56 90 1012.2
20260905224504 80 133 1.0 2.0 0.04 0.56 0.56 90 1012.0
20260905224004 80 107 1.0 2.0 0.03 0.55 0.55 90 1012.0
20260905223504 80 97 1.0 2.0 0.03 0.55 0.55 89 1012.0
20260905223025 80 109 1.0 3.0 0.03 0.55 0.55 89 1011.9
20260905222504 80 96 0.0 3.0 0.03 0.55 0.55 89 1011.9
20260905222003 80 24 0.0 2.0 0.03 0.55 0.55 89 1011.9
20260905221504 81 46 1.0 2.0 0.03 0.55 0.55 88 1011.9
20260905221004 81 93 1.0 2.0 0.02 0.54 0.54 88 1012.0
20260905220503 81 91 1.0 2.0 0.01 0.53 0.53 88 1012.0
20260905220004 82 67 1.0 2.0 0.00 0.52 0.52 87 1012.1
20260905215524 82 58 1.0 2.0 0.00 0.52 0.52 86 1012.1
20260905215003 82 97 1.0 2.0 0.00 0.52 0.52 86 1012.2
20260905214504 83 98 1.0 3.0 0.00 0.52 0.52 85 1012.2
20260905214003 83 110 1.0 3.0 0.00 0.52 0.52 84 1012.1
20260905213504 84 100 1.0 2.0 0.00 0.52 0.52 83 1012.1
20260905213003 84 83 1.0 2.0 0.00 0.52 0.52 82 1012.1
20260905212503 84 121 1.0 2.0 0.00 0.52 0.52 80 1012.0
20260905212003 84 132 1.0 2.0 0.00 0.52 0.52 79 1012.1
20260905211503 84 119 1.0 2.0 0.00 0.52 0.52 78 1012.1
20260905211003 84 41 2.0 3.0 0.00 0.52 0.52 80 1012.1
20260905210504 85 11 2.0 3.0 0.00 0.52 0.52 78 1012.1
20260905210004 86 181 1.0 4.0 0.00 0.52 0.52 79 1012.1
20260905205524 87 200 2.0 5.0 0.00 0.52 0.52 78 1012.0
20260905205003 87 230 1.0 5.0 0.00 0.52 0.52 77 1011.9
20260905204503 87 193 1.0 3.0 0.00 0.52 0.52 79 1011.9
20260905204004 87 205 2.0 4.0 0.00 0.52 0.52 79 1012.0
20260905203524 86 224 2.0 4.0 0.00 0.52 0.52 79 1012.0
20260905203003 86 234 1.0 4.0 0.00 0.52 0.52 79 1012.0
20260905202503 86 234 1.0 3.0 0.00 0.52 0.52 81 1012.0
20260905202024 85 247 1.0 3.0 0.00 0.52 0.52 82 1012.0
20260905201504 85 257 1.0 3.0 0.00 0.52 0.52 83 1012.1
20260905201003 85 337 1.0 3.0 0.00 0.52 0.52 82 1012.2
20260905200503 85 347 1.0 2.0 0.00 0.52 0.52 83 1012.4
20260905200004 86 312 1.0 4.0 0.00 0.52 0.52 83 1012.4
20260905195503 88 224 1.0 4.0 0.00 0.52 0.52 81 1012.3
20260905195004 88 216 2.0 4.0 0.00 0.52 0.52 78 1012.2
20260905194524 89 215 2.0 4.0 0.00 0.52 0.52 77 1012.2
20260905194003 87 204 2.0 4.0 0.00 0.52 0.52 79 1012.3
20260905193503 86 203 2.0 4.0 0.00 0.52 0.52 83 1012.3
20260905193025 84 238 1.0 3.0 0.01 0.52 0.52 87 1012.3
20260905192503 83 2 1.0 3.0 0.01 0.52 0.52 85 1012.3
20260905192003 82 351 1.0 2.0 0.01 0.52 0.52 88 1012.1
20260905191504 81 341 1.0 2.0 0.03 0.52 0.52 89 1012.0
20260905191003 80 327 1.0 2.0 0.09 0.52 0.52 91 1012.0
20260905190503 80 1 1.0 2.0 0.25 0.52 0.52 91 1012.0
20260905190003 79 41 1.0 4.0 0.28 0.52 0.52 90 1012.3
20260905185504 80 37 1.0 4.0 0.41 0.52 0.52 91 1012.5
20260905185003 80 358 1.0 3.0 0.44 0.52 0.52 91 1012.6
20260905184503 80 312 1.0 3.0 0.52 0.52 0.52 91 1012.6
20260905184003 80 332 1.0 2.0 0.52 0.52 0.52 91 1012.7
20260905183504 79 337 0.0 2.0 0.52 0.52 0.52 90 1013.0
20260905183003 79 132 1.0 3.0 0.51 0.51 0.51 90 1013.1
20260905182503 80 144 1.0 3.0 0.51 0.51 0.51 90 1013.2
20260905182003 80 221 1.0 4.0 0.51 0.51 0.51 90 1013.1
20260905181503 80 220 1.0 4.0 0.49 0.49 0.49 89 1013.1
20260905181003 80 22 1.0 4.0 0.43 0.43 0.43 88 1013.2
20260905180503 80 8 3.0 9.0 0.27 0.27 0.27 86 1013.3
20260905180003 82 25 4.0 9.0 0.24 0.24 0.24 84 1013.2
20260905175503 84 48 2.0 4.0 0.11 0.11 0.11 81 1013.2
20260905175003 86 233 2.0 4.0 0.08 0.08 0.08 80 1012.9
20260905174524 87 238 2.0 6.0 0.00 0.00 0.00 74 1012.8
20260905174004 87 228 2.0 6.0 0.00 0.00 0.00 73 1012.9
20260905173504 87 213 1.0 4.0 0.00 0.00 0.00 73 1013.1
20260905173004 87 230 2.0 4.0 0.00 0.00 0.00 73 1013.1
20260905172503 87 227 3.0 5.0 0.00 0.00 0.00 73 1013.1
20260905172003 88 220 3.0 5.0 0.00 0.00 0.00 72 1013.3
20260905171503 88 220 2.0 5.0 0.00 0.00 0.00 72 1013.3
20260905171024 89 218 3.0 6.0 0.00 0.00 0.00 71 1013.2
20260905170504 89 222 3.0 7.0 0.00 0.00 0.00 72 1013.2
20260905170003 90 235 3.0 7.0 0.00 0.00 0.00 70 1013.3
20260905165504 92 182 3.0 5.0 0.00 0.00 0.00 65 1013.3
20260905165003 93 136 3.0 5.0 0.00 0.00 0.00 65 1013.3
20260905164503 94 93 2.0 5.0 0.00 0.00 0.00 65 1013.4
20260905164003 92 137 2.0 4.0 0.00 0.00 0.00 68 1013.5
20260905163503 92 130 2.0 4.0 0.00 0.00 0.00 70 1013.5
20260905163003 88 28 1.0 4.0 0.00 0.00 0.00 74 1013.6
20260905162503 89 33 2.0 3.0 0.00 0.00 0.00 76 1013.7
20260905162003 90 44 2.0 5.0 0.00 0.00 0.00 73 1013.6
20260905161503 90 55 2.0 5.0 0.00 0.00 0.00 71 1013.8
20260905161003 90 66 2.0 4.0 0.00 0.00 0.00 72 1013.8
20260905160504 90 71 2.0 4.0 0.00 0.00 0.00 71 1013.9
20260905160025 90 85 2.0 4.0 0.00 0.00 0.00 72 1013.9
20260905155525 90 71 2.0 4.0 0.00 0.00 0.00 72 1013.9
20260905155003 89 17 2.0 4.0 0.00 0.00 0.00 73 1013.9
20260905154503 88 328 2.0 5.0 0.00 0.00 0.00 76 1014.0
20260905154003 88 3 2.0 5.0 0.00 0.00 0.00 78 1013.9
20260905153503 88 1 2.0 5.0 0.00 0.00 0.00 78 1013.9
20260905153003 88 20 2.0 5.0 0.00 0.00 0.00 76 1013.9
20260905152524 88 32 2.0 5.0 0.00 0.00 0.00 78 1013.9
20260905152004 87 261 1.0 3.0 0.00 0.00 0.00 80 1014.0
20260905151503 87 208 2.0 4.0 0.00 0.00 0.00 80 1014.0
20260905151003 86 220 2.0 4.0 0.00 0.00 0.00 81 1013.9
20260905150503 85 320 2.0 4.0 0.00 0.00 0.00 83 1013.9
20260905150003 84 215 1.0 4.0 0.00 0.00 0.00 85 1014.0
20260905145504 84 187 1.0 3.0 0.00 0.00 0.00 86 1013.9
20260905145003 83 91 1.0 2.0 0.00 0.00 0.00 87 1013.9
20260905144503 82 26 1.0 2.0 0.00 0.00 0.00 87 1013.9
20260905144025 82 12 1.0 2.0 0.00 0.00 0.00 88 1014.0
20260905143503 82 7 1.0 2.0 0.00 0.00 0.00 88 1014.0
20260905143003 82 58 0.0 2.0 0.00 0.00 0.00 90 1014.0
20260905142524 82 316 1.0 3.0 0.00 0.00 0.00 91 1014.0
20260905142003 81 340 1.0 3.0 0.00 0.00 0.00 91 1014.0
20260905141524 81 333 1.0 3.0 0.00 0.00 0.00 93 1014.0
20260905141003 80 330 1.0 3.0 0.00 0.00 0.00 94 1014.0
20260905140503 80 355 1.0 2.0 0.00 0.00 0.00 94 1014.0
20260905140004 79 349 1.0 2.0 0.00 0.00 0.00 94 1014.0
20260905135503 79 346 1.0 2.0 0.00 0.00 0.00 94 1014.0
20260905135004 79 340 1.0 2.0 0.00 0.00 0.00 94 1014.0
20260905134524 79 295 1.0 2.0 0.00 0.00 0.00 95 1013.9
20260905134003 78 249 1.0 2.0 0.00 0.00 0.00 95 1013.9
20260905133503 78 218 1.0 2.0 0.00 0.00 0.00 95 1013.8
20260905133003 78 194 1.0 2.0 0.00 0.00 0.00 95 1013.8
20260905132504 78 196 1.0 2.0 0.00 0.00 0.00 95 1013.8
20260905132003 78 182 1.0 2.0 0.00 0.00 0.00 94 1013.9
20260905131503 78 158 0.0 1.0 0.00 0.00 0.00 94 1013.8
20260905131003 77 216 1.0 2.0 0.00 0.00 0.00 94 1013.8
20260905130503 77 219 1.0 2.0 0.00 0.00 0.00 94 1013.7
20260905130003 77 201 1.0 2.0 0.00 0.00 0.00 94 1013.7
20260905125524 77 211 1.0 2.0 0.00 0.00 0.00 94 1013.7
20260905125003 77 215 1.0 2.0 0.00 0.00 0.00 94 1013.6
20260905124504 77 219 0.0 2.0 0.00 0.00 0.00 94 1013.6
20260905124003 77 35 0.0 1.0 0.00 0.00 0.00 94 1013.6
20260905123503 76 9 0.0 1.0 0.00 0.00 0.00 94 1013.6
20260905123025 76 335 0.0 1.0 0.00 0.00 0.00 93 1013.5
20260905122503 76 355 0.0 1.0 0.00 0.00 0.00 93 1013.5
20260905122005 76 1 0.0 1.0 0.00 0.00 0.00 93 1013.5
20260905121503 76 347 0.0 1.0 0.00 0.00 0.00 93 1013.4
20260905121003 76 349 0.0 1.0 0.00 0.00 0.00 93 1013.4
20260905120503 76 26 0.0 1.0 0.00 0.00 0.00 93 1013.3
20260905120004 76 36 0.0 1.0 0.00 0.00 0.00 93 1013.3
20260905115503 76 41 0.0 1.0 0.00 0.00 0.00 93 1013.2
20260905115003 76 22 0.0 1.0 0.00 0.00 0.00 93 1013.1
20260905114503 76 25 0.0 1.0 0.00 0.00 0.00 93 1013.2
20260905114004 76 28 0.0 1.0 0.00 0.00 0.00 93 1013.2
20260905113503 76 39 0.0 1.0 0.00 0.00 0.00 93 1013.1
20260905113003 76 41 0.0 1.0 0.00 0.00 0.00 93 1013.1
20260905112503 76 169 0.0 1.0 0.00 0.00 0.00 93 1013.1
20260905112003 76 167 0.0 1.0 0.00 0.00 0.00 93 1013.1
20260905111503 76 167 0.0 1.0 0.00 0.00 0.00 93 1013.1